Weather in Gukovo

Russia / Rostov Oblast     48°03′30″N   39°56′24″E
temp.,
°C
wind,
m/s
gust,
m/s
humid.,
%
clouds,
%
prec.,
mm/h
press.,
hPa
HPBL,
m
4 march, thu
thu400:00−2wnw37800 0.0 1023189
03:00−2w47790 0.0 1023180
06:00−2wsw59730 0.0 1023264
09:00+1wsw813610 0.0 1022683
12:00+4wsw913470 0.0 10201037
15:00+5sw913520 0.0 10181097
18:00+3sw815710 0.0 1016631
21:00+2sw1018730 0.0 1015545
5 march, fri
fri500:00+2sw10198577 0.0 1014647
03:00+2sw10198482 0.0 1013676
06:00+2wsw9178978 0.0 1013701
09:00+3wsw9148789 0.0 1013677
12:00+4wsw81386100 0.0 1014788
15:00+4sw71288100 0.1 1013593
18:00+4sw61285100 0.0 1013532
21:00+4sw71489100 0.0 1014573
6 march, sat
sat600:00+4sw81589100 0.0 1013483
03:00+3sw71591100 0.0 1012522
06:00+4sw61295100 0.0 1010474
09:00+4wsw51195100 0.8 1010495
12:00+2nw5896100 0.8 1011375
15:00+1nnw71090100 0.9 1012701
18:000nnw61090100 0.3 1015719
21:00−3nw91380100 0.4 1018882
7 march, sun
sun700:00−4nw7116132 0.0 10201282
03:00−4nw7116027 0.0 10211274
06:00−4nw7106588 0.0 10231050
09:00−3wnw685559 0.0 1025921
12:00−1w67420 0.0 10241293
15:00+1wsw79400 0.0 10221377
18:00−1sw7125023 0.0 1020736
21:00−2sw8156832 0.0 1019636
8 march, mon
mon800:00−2wsw7156617 0.0 1018673
03:00−2wsw815619 0.0 1016668
06:00−2wsw815690 0.0 1015660
09:000wsw10156343 0.0 1014936
12:00+4wsw10154663 0.0 10141725
15:00+5wsw9145081 0.0 10131905
18:00+1sw7129596 0.1 1013522
21:00+1sw6138898 0.3 1014507